Year,Month,Day,Hour,Minute,Value (Times are PST for temperature in C)
2009,07,27,00,00,19.70
2009,07,27,00,01,19.70
2009,07,27,00,02,19.70
2009,07,27,00,03,19.70
2009,07,27,00,04,19.60
2009,07,27,00,05,19.60
2009,07,27,00,06,19.60
2009,07,27,00,07,19.60
2009,07,27,00,08,19.60
2009,07,27,00,09,19.60
2009,07,27,00,10,19.60
2009,07,27,00,11,19.60
2009,07,27,00,12,19.60
2009,07,27,00,18,19.60
2009,07,27,00,19,19.50
2009,07,27,00,20,19.50
2009,07,27,00,21,19.50
2009,07,27,00,22,19.40
2009,07,27,00,23,19.40
2009,07,27,00,24,19.40
2009,07,27,00,25,19.40
2009,07,27,00,26,19.40
2009,07,27,00,27,19.40
2009,07,27,00,28,19.40
2009,07,27,00,29,19.40
2009,07,27,00,30,19.40
2009,07,27,00,31,19.40
2009,07,27,00,32,19.40
2009,07,27,00,33,19.30
2009,07,27,00,34,19.30
2009,07,27,00,35,19.30
2009,07,27,00,36,19.30
2009,07,27,00,37,19.30
2009,07,27,00,38,19.30
2009,07,27,00,39,19.30
2009,07,27,00,40,19.30
2009,07,27,00,41,19.20
2009,07,27,00,42,19.20
2009,07,27,00,43,19.20
2009,07,27,00,44,19.20
2009,07,27,00,45,19.20
2009,07,27,00,46,19.10
2009,07,27,00,47,19.10
2009,07,27,00,48,19.10
2009,07,27,00,49,19.10
2009,07,27,00,50,19.10
2009,07,27,00,51,19.10
2009,07,27,00,52,19.10
2009,07,27,00,53,19.10
2009,07,27,00,54,19.00
2009,07,27,00,55,19.00
2009,07,27,00,56,19.00
2009,07,27,00,57,19.00
2009,07,27,00,58,19.00
2009,07,27,00,59,19.00
2009,07,27,01,00,19.00
2009,07,27,01,01,19.00
2009,07,27,01,02,19.00
2009,07,27,01,03,19.00
2009,07,27,01,04,19.00
2009,07,27,01,05,18.90
2009,07,27,01,06,18.90
2009,07,27,01,07,18.90
2009,07,27,01,08,18.90
2009,07,27,01,09,18.90
2009,07,27,01,10,18.90
2009,07,27,01,11,18.90
2009,07,27,01,12,18.90
2009,07,27,01,13,18.90
2009,07,27,01,14,18.90
2009,07,27,01,15,18.90
2009,07,27,01,16,18.90
2009,07,27,01,17,18.90
2009,07,27,01,18,18.90
2009,07,27,01,19,18.80
2009,07,27,01,20,18.80
2009,07,27,01,21,18.80
2009,07,27,01,22,18.80
2009,07,27,01,23,18.80
2009,07,27,01,24,18.80
2009,07,27,01,25,18.80
2009,07,27,01,26,18.80
2009,07,27,01,27,18.70
2009,07,27,01,28,18.70
2009,07,27,01,29,18.70
2009,07,27,01,30,18.70
2009,07,27,01,31,18.70
2009,07,27,01,32,18.70
2009,07,27,01,33,18.70
2009,07,27,01,34,18.70
2009,07,27,01,35,18.60
2009,07,27,01,36,18.60
2009,07,27,01,37,18.60
2009,07,27,01,38,18.60
2009,07,27,01,39,18.60
2009,07,27,01,40,18.60
2009,07,27,01,41,18.60
2009,07,27,01,42,18.60
2009,07,27,01,43,18.50
2009,07,27,01,44,18.50
2009,07,27,01,45,18.50
2009,07,27,01,46,18.50
2009,07,27,01,47,18.50
2009,07,27,01,48,18.50
2009,07,27,01,49,18.40
2009,07,27,01,50,18.40
2009,07,27,01,51,18.40
2009,07,27,01,52,18.40
2009,07,27,01,53,18.40
2009,07,27,01,54,18.40
2009,07,27,01,55,18.40
2009,07,27,01,56,18.40
2009,07,27,01,57,18.40
2009,07,27,01,58,18.40
2009,07,27,01,59,18.40
2009,07,27,02,00,18.40
2009,07,27,02,01,18.30
2009,07,27,02,02,18.30
2009,07,27,02,03,18.30
2009,07,27,02,04,18.30
2009,07,27,02,05,18.30
2009,07,27,02,06,18.30
2009,07,27,02,07,18.30
2009,07,27,02,08,18.30
2009,07,27,02,09,18.30
2009,07,27,02,10,18.30
2009,07,27,02,11,18.20
2009,07,27,02,12,18.20
2009,07,27,02,13,18.20
2009,07,27,02,14,18.20
2009,07,27,02,15,18.20
2009,07,27,02,16,18.20
2009,07,27,02,17,18.20
2009,07,27,02,18,18.20
2009,07,27,02,19,18.10
2009,07,27,02,20,18.10
2009,07,27,02,21,18.20
2009,07,27,02,22,18.20
2009,07,27,02,23,18.20
2009,07,27,02,24,18.10
2009,07,27,02,25,18.10
2009,07,27,02,26,18.10
2009,07,27,02,27,18.10
2009,07,27,02,28,18.10
2009,07,27,02,29,18.10
2009,07,27,02,30,18.10
2009,07,27,02,31,18.10
2009,07,27,02,32,18.10
2009,07,27,02,33,18.10
2009,07,27,02,34,18.10
2009,07,27,02,35,18.00
2009,07,27,02,36,18.00
2009,07,27,02,37,18.00
2009,07,27,02,38,18.00
2009,07,27,02,39,18.00
2009,07,27,02,40,18.00
2009,07,27,02,41,18.00
2009,07,27,02,42,18.00
2009,07,27,02,43,18.00
2009,07,27,02,44,18.00
2009,07,27,02,45,18.00
2009,07,27,02,46,18.00
2009,07,27,02,47,17.90
2009,07,27,02,48,17.90
2009,07,27,02,49,17.90
2009,07,27,02,50,17.90
2009,07,27,02,51,17.90
2009,07,27,02,52,17.90
2009,07,27,02,53,17.90
2009,07,27,02,54,17.90
2009,07,27,02,55,17.90
2009,07,27,02,56,17.90
2009,07,27,02,57,17.90
2009,07,27,02,58,17.90
2009,07,27,02,59,17.90
2009,07,27,03,00,17.90
2009,07,27,03,01,17.90
2009,07,27,03,02,17.90
2009,07,27,03,03,17.90
2009,07,27,03,04,17.80
2009,07,27,03,05,17.80
2009,07,27,03,06,17.80
2009,07,27,03,07,17.80
2009,07,27,03,08,17.80
2009,07,27,03,09,17.80
2009,07,27,03,10,17.80
2009,07,27,03,11,17.80
2009,07,27,03,12,17.70
2009,07,27,03,13,17.70
2009,07,27,03,14,17.70
2009,07,27,03,15,17.70
2009,07,27,03,16,17.70
2009,07,27,03,17,17.70
2009,07,27,03,18,17.70
2009,07,27,03,19,17.70
2009,07,27,03,20,17.70
2009,07,27,03,21,17.70
2009,07,27,03,22,17.70
2009,07,27,03,23,17.70
2009,07,27,03,24,17.70
2009,07,27,03,25,17.70
2009,07,27,03,26,17.70
2009,07,27,03,27,17.70
2009,07,27,03,28,17.70
2009,07,27,03,29,17.70
2009,07,27,03,30,17.70
2009,07,27,03,31,17.70
2009,07,27,03,32,17.70
2009,07,27,03,33,17.70
2009,07,27,03,34,17.70
2009,07,27,03,35,17.70
2009,07,27,03,36,17.70
2009,07,27,03,37,17.70
2009,07,27,03,38,17.70
2009,07,27,03,39,17.70
2009,07,27,03,40,17.60
2009,07,27,03,41,17.60
2009,07,27,03,42,17.60
2009,07,27,03,43,17.60
2009,07,27,03,44,17.60
2009,07,27,03,45,17.60
2009,07,27,03,46,17.60
2009,07,27,03,47,17.60
2009,07,27,03,48,17.60
2009,07,27,03,49,17.60
2009,07,27,03,50,17.60
2009,07,27,03,51,17.60
2009,07,27,03,52,17.50
2009,07,27,03,53,17.50
2009,07,27,03,54,17.50
2009,07,27,03,55,17.50
2009,07,27,03,56,17.40
2009,07,27,03,57,17.40
2009,07,27,03,58,17.40
2009,07,27,03,59,17.40
2009,07,27,04,00,17.40
2009,07,27,04,01,17.40
2009,07,27,04,02,17.30
2009,07,27,04,03,17.30
2009,07,27,04,04,17.30
2009,07,27,04,05,17.30
2009,07,27,04,06,17.30
2009,07,27,04,07,17.30
2009,07,27,04,08,17.30
2009,07,27,04,09,17.30
2009,07,27,04,10,17.20
2009,07,27,04,11,17.20
2009,07,27,04,12,17.20
2009,07,27,04,13,17.20
2009,07,27,04,14,17.20
2009,07,27,04,15,17.20
2009,07,27,04,16,17.20
2009,07,27,04,17,17.10
2009,07,27,04,18,17.10
2009,07,27,04,19,17.10
2009,07,27,04,20,17.10
2009,07,27,04,21,17.10
2009,07,27,04,22,17.00
2009,07,27,04,23,17.00
2009,07,27,04,24,17.00
2009,07,27,04,25,16.90
2009,07,27,04,26,16.90
2009,07,27,04,27,16.90
2009,07,27,04,28,16.90
2009,07,27,04,29,16.90
2009,07,27,04,30,16.90
2009,07,27,04,31,16.80
2009,07,27,04,32,16.80
2009,07,27,04,33,16.80
2009,07,27,04,34,16.80
2009,07,27,04,35,16.80
2009,07,27,04,36,16.80
2009,07,27,04,37,16.70
2009,07,27,04,38,16.70
2009,07,27,04,39,16.70
2009,07,27,04,40,16.70
2009,07,27,04,41,16.70
2009,07,27,04,42,16.70
2009,07,27,04,43,16.60
2009,07,27,04,44,16.60
2009,07,27,04,45,16.60
2009,07,27,04,46,16.60
2009,07,27,04,47,16.60
2009,07,27,04,48,16.60
2009,07,27,04,49,16.60
2009,07,27,04,50,16.60
2009,07,27,04,51,16.60
2009,07,27,04,52,16.50
2009,07,27,04,53,16.50
2009,07,27,04,54,16.50
2009,07,27,04,55,16.50
2009,07,27,04,56,16.50
2009,07,27,04,57,16.50
2009,07,27,04,58,16.40
2009,07,27,04,59,16.40
2009,07,27,05,00,16.40
2009,07,27,05,01,16.40
2009,07,27,05,02,16.40
2009,07,27,05,03,16.40
2009,07,27,05,04,16.40
2009,07,27,05,05,16.30
2009,07,27,05,06,16.30
2009,07,27,05,07,16.30
2009,07,27,05,08,16.30
2009,07,27,05,09,16.30
2009,07,27,05,10,16.30
2009,07,27,05,11,16.30
2009,07,27,05,12,16.20
2009,07,27,05,13,16.20
2009,07,27,05,14,16.20
2009,07,27,05,15,16.20
2009,07,27,05,16,16.20
2009,07,27,05,17,16.20
2009,07,27,05,18,16.10
2009,07,27,05,19,16.10
2009,07,27,05,20,16.10
2009,07,27,05,21,16.10
2009,07,27,05,22,16.10
2009,07,27,05,23,16.10
2009,07,27,05,24,16.10
2009,07,27,05,25,16.10
2009,07,27,05,26,16.10
2009,07,27,05,27,16.10
2009,07,27,05,28,16.10
2009,07,27,05,29,16.10
2009,07,27,05,30,16.10
2009,07,27,05,31,16.10
2009,07,27,05,32,16.10
2009,07,27,05,33,16.00
2009,07,27,05,34,16.00
2009,07,27,05,35,16.00
2009,07,27,05,36,16.00
2009,07,27,05,37,16.00
2009,07,27,05,38,16.00
2009,07,27,05,39,16.00
2009,07,27,05,40,16.00
2009,07,27,05,41,15.90
2009,07,27,05,42,15.90
2009,07,27,05,43,15.90
2009,07,27,05,44,15.90
2009,07,27,05,45,15.90
2009,07,27,05,46,15.90
2009,07,27,05,47,15.90
2009,07,27,05,48,15.90
2009,07,27,05,49,15.90
2009,07,27,05,50,15.90
2009,07,27,05,51,15.90
2009,07,27,05,52,15.90
2009,07,27,05,53,15.90
2009,07,27,05,54,15.90
2009,07,27,05,55,15.90
2009,07,27,05,56,15.90
2009,07,27,05,57,15.90
2009,07,27,05,58,15.90
2009,07,27,05,59,15.90
2009,07,27,06,00,15.90
2009,07,27,06,01,15.90
2009,07,27,06,02,15.90
2009,07,27,06,03,15.90
2009,07,27,06,04,15.90
2009,07,27,06,05,15.90
2009,07,27,06,06,15.80
2009,07,27,06,07,15.80
2009,07,27,06,08,15.80
2009,07,27,06,09,15.80
2009,07,27,06,10,15.90
2009,07,27,06,11,15.90
2009,07,27,06,12,15.90
2009,07,27,06,13,15.90
2009,07,27,06,14,15.90
2009,07,27,06,15,15.90
2009,07,27,06,16,15.90
2009,07,27,06,17,15.90
2009,07,27,06,18,15.90
2009,07,27,06,19,15.90
2009,07,27,06,20,15.90
2009,07,27,06,21,15.90
2009,07,27,06,22,15.90
2009,07,27,06,23,15.90
2009,07,27,06,24,16.00
2009,07,27,06,25,16.00
2009,07,27,06,26,16.00
2009,07,27,06,27,16.00
2009,07,27,06,28,16.00
2009,07,27,06,29,16.10
2009,07,27,06,30,16.10
2009,07,27,06,31,16.10
2009,07,27,06,32,16.10
2009,07,27,06,33,16.10
2009,07,27,06,34,16.10
2009,07,27,06,35,16.20
2009,07,27,06,36,16.20
2009,07,27,06,37,16.20
2009,07,27,06,38,16.20
2009,07,27,06,39,16.20
2009,07,27,06,40,16.20
2009,07,27,06,41,16.20
2009,07,27,06,42,16.30
2009,07,27,06,43,16.30
2009,07,27,06,44,16.30
2009,07,27,06,45,16.30
2009,07,27,06,46,16.30
2009,07,27,06,47,16.30
2009,07,27,06,48,16.30
2009,07,27,06,49,16.40
2009,07,27,06,50,16.40
2009,07,27,06,51,16.40
2009,07,27,06,52,16.40
2009,07,27,06,53,16.40
2009,07,27,06,54,16.40
2009,07,27,06,55,16.40
2009,07,27,06,56,16.50
2009,07,27,06,57,16.50
2009,07,27,06,58,16.50
2009,07,27,06,59,16.60
2009,07,27,07,00,16.60
2009,07,27,07,01,16.60
2009,07,27,07,02,16.70
2009,07,27,07,03,16.70
2009,07,27,07,04,16.80
2009,07,27,07,05,16.80
2009,07,27,07,06,16.90
2009,07,27,07,07,17.00
2009,07,27,07,08,17.00
2009,07,27,07,09,17.00
2009,07,27,07,10,17.10
2009,07,27,07,11,17.20
2009,07,27,07,12,17.20
2009,07,27,07,13,17.20
2009,07,27,07,14,17.30
2009,07,27,07,15,17.30
2009,07,27,07,16,17.30
2009,07,27,07,17,17.40
2009,07,27,07,18,17.50
2009,07,27,07,19,17.50
2009,07,27,07,20,17.60
2009,07,27,07,21,17.70
2009,07,27,07,22,17.80
2009,07,27,07,23,17.80
2009,07,27,07,24,17.90
2009,07,27,07,25,18.00
2009,07,27,07,26,18.10
2009,07,27,07,27,18.20
2009,07,27,07,28,18.40
2009,07,27,07,29,18.50
2009,07,27,07,30,18.70
2009,07,27,07,31,18.80
2009,07,27,07,32,19.00
2009,07,27,07,33,19.20
2009,07,27,07,34,19.40
2009,07,27,07,35,19.60
2009,07,27,07,36,19.70
2009,07,27,07,37,19.80
2009,07,27,07,38,19.90
2009,07,27,07,39,20.10
2009,07,27,07,40,20.20
2009,07,27,07,41,20.40
2009,07,27,07,42,20.60
2009,07,27,07,43,20.70
2009,07,27,07,44,20.90
2009,07,27,07,45,21.00
2009,07,27,07,46,21.20
2009,07,27,07,47,21.40
2009,07,27,07,48,21.50
2009,07,27,07,49,21.60
2009,07,27,07,50,21.70
2009,07,27,07,51,21.80
2009,07,27,07,52,21.80
2009,07,27,07,53,21.90
2009,07,27,07,54,21.90
2009,07,27,07,55,22.00
2009,07,27,07,56,22.10
2009,07,27,07,57,22.10
2009,07,27,07,58,22.20
2009,07,27,07,59,22.20
2009,07,27,08,00,22.30
2009,07,27,08,01,22.30
2009,07,27,08,02,22.40
2009,07,27,08,03,22.40
2009,07,27,08,04,22.50
2009,07,27,08,05,22.60
2009,07,27,08,06,22.70
2009,07,27,08,07,22.80
2009,07,27,08,08,22.80
2009,07,27,08,09,22.80
2009,07,27,08,10,22.90
2009,07,27,08,11,22.90
2009,07,27,08,12,23.00
2009,07,27,08,13,23.00
2009,07,27,08,14,23.10
2009,07,27,08,15,23.20
2009,07,27,08,16,23.20
2009,07,27,08,17,23.30
2009,07,27,08,18,23.40
2009,07,27,08,19,23.50
2009,07,27,08,20,23.60
2009,07,27,08,21,23.70
2009,07,27,08,22,23.70
2009,07,27,08,23,23.80
2009,07,27,08,24,23.90
2009,07,27,08,25,23.90
2009,07,27,08,26,24.00
2009,07,27,08,27,24.00
2009,07,27,08,28,24.10
2009,07,27,08,29,24.10
2009,07,27,08,30,24.10
2009,07,27,08,31,24.20
2009,07,27,08,32,24.20
2009,07,27,08,33,24.20
2009,07,27,08,34,24.30
2009,07,27,08,35,24.30
2009,07,27,08,36,24.30
2009,07,27,08,37,24.30
2009,07,27,08,38,24.30
2009,07,27,08,39,24.40
2009,07,27,08,40,24.40
2009,07,27,08,41,24.50
2009,07,27,08,42,24.60
2009,07,27,08,43,24.60
2009,07,27,08,44,24.70
2009,07,27,08,45,24.70
2009,07,27,08,46,24.80
2009,07,27,08,47,24.80
2009,07,27,08,48,24.80
2009,07,27,08,49,24.80
2009,07,27,08,50,24.90
2009,07,27,08,51,24.90
2009,07,27,08,52,24.90
2009,07,27,08,53,25.00
2009,07,27,08,54,25.10
2009,07,27,08,55,25.10
2009,07,27,08,56,25.10
2009,07,27,08,57,25.20
2009,07,27,08,58,25.30
2009,07,27,08,59,25.30
2009,07,27,09,00,25.30
2009,07,27,09,01,25.30
2009,07,27,09,02,25.30
2009,07,27,09,03,25.30
2009,07,27,09,04,25.30
2009,07,27,09,05,25.20
2009,07,27,09,06,25.10
2009,07,27,09,07,25.10
2009,07,27,09,08,25.00
2009,07,27,09,09,25.10
2009,07,27,09,10,25.10
2009,07,27,09,11,25.10
2009,07,27,09,12,25.10
2009,07,27,09,13,25.00
2009,07,27,09,14,25.00
2009,07,27,09,15,25.10
2009,07,27,09,16,25.20
2009,07,27,09,17,25.20
2009,07,27,09,18,25.20
2009,07,27,09,19,25.20
2009,07,27,09,20,25.20
2009,07,27,09,21,25.20
2009,07,27,09,22,25.20
2009,07,27,09,23,25.20
2009,07,27,09,24,25.20
2009,07,27,09,25,25.10
2009,07,27,09,26,25.10
2009,07,27,09,27,25.10
2009,07,27,09,28,25.20
2009,07,27,09,29,25.30
2009,07,27,09,30,25.30
2009,07,27,09,31,25.40
2009,07,27,09,32,25.40
2009,07,27,09,33,25.50
2009,07,27,09,34,25.50
2009,07,27,09,35,25.60
2009,07,27,09,36,25.60
2009,07,27,09,37,25.60
2009,07,27,09,38,25.70
2009,07,27,09,39,25.80
2009,07,27,09,40,25.90
2009,07,27,09,41,25.90
2009,07,27,09,42,25.90
2009,07,27,09,43,25.90
2009,07,27,09,44,25.90
2009,07,27,09,45,26.00
2009,07,27,09,46,26.00
2009,07,27,09,47,26.10
2009,07,27,09,48,26.10
2009,07,27,09,49,26.20
2009,07,27,09,50,26.20
2009,07,27,09,51,26.30
2009,07,27,09,52,26.30
2009,07,27,09,53,26.40
2009,07,27,09,54,26.40
2009,07,27,09,55,26.50
2009,07,27,09,56,26.60
2009,07,27,09,57,26.60
2009,07,27,09,58,26.60
2009,07,27,09,59,26.60
2009,07,27,10,00,26.70
2009,07,27,10,01,26.70
2009,07,27,10,02,26.70
2009,07,27,10,03,26.90
2009,07,27,10,04,26.90
2009,07,27,10,05,27.00
2009,07,27,10,06,26.90
2009,07,27,10,07,26.70
2009,07,27,10,08,26.60
2009,07,27,10,09,26.60
2009,07,27,10,10,26.50
2009,07,27,10,11,26.40
2009,07,27,10,12,26.40
2009,07,27,10,13,26.40
2009,07,27,10,14,26.40
2009,07,27,10,15,26.50
2009,07,27,10,16,26.50
2009,07,27,10,17,26.40
2009,07,27,10,18,26.40
2009,07,27,10,19,26.40
2009,07,27,10,20,26.50
2009,07,27,10,21,26.50
2009,07,27,10,22,26.40
2009,07,27,10,23,26.30
2009,07,27,10,24,26.30
2009,07,27,10,25,26.30
2009,07,27,10,26,26.40
2009,07,27,10,27,26.50
2009,07,27,10,28,26.60
2009,07,27,10,29,26.60
2009,07,27,10,30,26.70
2009,07,27,10,31,26.80
2009,07,27,10,32,26.90
2009,07,27,10,33,26.90
2009,07,27,10,34,26.90
2009,07,27,10,35,26.90
2009,07,27,10,36,26.90
2009,07,27,10,37,26.70
2009,07,27,10,38,26.70
2009,07,27,10,39,26.60
2009,07,27,10,40,26.60
2009,07,27,10,41,26.60
2009,07,27,10,42,26.40
2009,07,27,10,43,26.40
2009,07,27,10,44,26.30
2009,07,27,10,45,26.30
2009,07,27,10,46,26.30
2009,07,27,10,47,26.30
2009,07,27,10,48,26.30
2009,07,27,10,49,26.30
2009,07,27,10,50,26.30
2009,07,27,10,51,26.40
2009,07,27,10,52,26.50
2009,07,27,10,53,26.60
2009,07,27,10,54,26.60
2009,07,27,10,55,26.80
2009,07,27,10,56,26.80
2009,07,27,10,57,26.90
2009,07,27,10,58,26.90
2009,07,27,10,59,26.90
2009,07,27,11,00,26.90
2009,07,27,11,01,26.90
2009,07,27,11,02,26.90
2009,07,27,11,03,26.90
2009,07,27,11,04,27.00
2009,07,27,11,05,27.10
2009,07,27,11,06,27.10
2009,07,27,11,07,27.20
2009,07,27,11,08,27.40
2009,07,27,11,09,27.50
2009,07,27,11,10,27.60
2009,07,27,11,11,27.70
2009,07,27,11,12,27.70
2009,07,27,11,13,27.60
2009,07,27,11,14,27.40
2009,07,27,11,15,27.30
2009,07,27,11,16,27.20
2009,07,27,11,17,27.20
2009,07,27,11,18,27.20
2009,07,27,11,19,27.30
2009,07,27,11,20,27.30
2009,07,27,11,21,27.30
2009,07,27,11,22,27.30
2009,07,27,11,23,27.40
2009,07,27,11,24,27.50
2009,07,27,11,25,27.70
2009,07,27,11,26,27.70
2009,07,27,11,27,27.70
2009,07,27,11,28,27.60
2009,07,27,11,29,27.60
2009,07,27,11,30,27.60
2009,07,27,11,31,27.70
2009,07,27,11,32,27.90
2009,07,27,11,33,28.10
2009,07,27,11,34,28.20
2009,07,27,11,35,28.30
2009,07,27,11,36,28.30
2009,07,27,11,37,28.40
2009,07,27,11,38,28.40
2009,07,27,11,39,28.30
2009,07,27,11,40,28.30
2009,07,27,11,41,28.30
2009,07,27,11,42,28.10
2009,07,27,11,43,27.90
2009,07,27,11,44,27.90
2009,07,27,11,45,27.70
2009,07,27,11,46,27.60
2009,07,27,11,47,27.60
2009,07,27,11,48,27.50
2009,07,27,11,49,27.40
2009,07,27,11,50,27.40
2009,07,27,11,51,27.40
2009,07,27,11,52,27.40
2009,07,27,11,53,27.40
2009,07,27,11,54,27.50
2009,07,27,11,55,27.60
2009,07,27,11,56,27.60
2009,07,27,11,57,27.60
2009,07,27,11,58,27.60
2009,07,27,11,59,27.70
2009,07,27,12,00,27.80
2009,07,27,12,01,27.90
2009,07,27,12,02,28.00
2009,07,27,12,03,28.10
2009,07,27,12,04,28.10
2009,07,27,12,05,28.20
2009,07,27,12,06,28.20
2009,07,27,12,07,28.20
2009,07,27,12,08,28.20
2009,07,27,12,09,28.20
2009,07,27,12,10,28.30
2009,07,27,12,11,28.30
2009,07,27,12,12,28.40
2009,07,27,12,13,28.50
2009,07,27,12,14,28.60
2009,07,27,12,15,28.70
2009,07,27,12,16,28.70
2009,07,27,12,17,28.80
2009,07,27,12,18,28.80
2009,07,27,12,19,28.80
2009,07,27,12,20,28.70
2009,07,27,12,21,28.60
2009,07,27,12,22,28.40
2009,07,27,12,23,28.20
2009,07,27,12,24,28.00
2009,07,27,12,25,28.00
2009,07,27,12,26,28.00
2009,07,27,12,27,28.00
2009,07,27,12,28,28.00
2009,07,27,12,29,27.90
2009,07,27,12,30,28.00
2009,07,27,12,31,28.10
2009,07,27,12,32,28.20
2009,07,27,12,33,28.20
2009,07,27,12,34,28.30
2009,07,27,12,35,28.30
2009,07,27,12,36,28.30
2009,07,27,12,37,28.30
2009,07,27,12,38,28.40
2009,07,27,12,39,28.30
2009,07,27,12,40,28.20
2009,07,27,12,41,28.20
2009,07,27,12,42,28.20
2009,07,27,12,43,28.20
2009,07,27,12,44,28.20
2009,07,27,12,45,28.20
2009,07,27,12,46,28.20
2009,07,27,12,47,28.20
2009,07,27,12,48,28.20
2009,07,27,12,49,28.20
2009,07,27,12,50,28.30
2009,07,27,12,51,28.40
2009,07,27,12,52,28.40
2009,07,27,12,53,28.50
2009,07,27,12,54,28.60
2009,07,27,12,55,28.70
2009,07,27,12,56,28.70
2009,07,27,12,57,28.70
2009,07,27,12,58,28.70
2009,07,27,12,59,28.70
2009,07,27,13,00,28.80
2009,07,27,13,01,28.90
2009,07,27,13,02,29.00
2009,07,27,13,03,29.00
2009,07,27,13,04,28.90
2009,07,27,13,05,28.70
2009,07,27,13,06,28.70
2009,07,27,13,07,28.70
2009,07,27,13,08,28.70
2009,07,27,13,09,28.80
2009,07,27,13,10,28.90
2009,07,27,13,11,29.00
2009,07,27,13,12,29.10
2009,07,27,13,13,29.20
2009,07,27,13,14,29.30
2009,07,27,13,15,29.40
2009,07,27,13,16,29.40
2009,07,27,13,17,29.40
2009,07,27,13,18,29.50
2009,07,27,13,19,29.60
2009,07,27,13,20,29.70
2009,07,27,13,21,29.80
2009,07,27,13,22,30.00
2009,07,27,13,23,30.00
2009,07,27,13,24,29.80
2009,07,27,13,25,29.50
2009,07,27,13,26,29.30
2009,07,27,13,27,29.20
2009,07,27,13,28,29.10
2009,07,27,13,29,29.10
2009,07,27,13,30,29.10
2009,07,27,13,31,29.10
2009,07,27,13,32,29.10
2009,07,27,13,33,29.10
2009,07,27,13,34,29.10
2009,07,27,13,35,29.00
2009,07,27,13,36,29.10
2009,07,27,13,37,29.20
2009,07,27,13,38,29.20
2009,07,27,13,39,29.20
2009,07,27,13,40,29.20
2009,07,27,13,41,29.20
2009,07,27,13,42,29.40
2009,07,27,13,43,29.40
2009,07,27,13,44,29.50
2009,07,27,13,45,29.60
2009,07,27,13,46,29.80
2009,07,27,13,47,29.80
2009,07,27,13,48,30.00
2009,07,27,13,49,30.10
2009,07,27,13,50,30.20
2009,07,27,13,51,30.30
2009,07,27,13,52,30.30
2009,07,27,13,53,30.30
2009,07,27,13,54,30.40
2009,07,27,13,55,30.40
2009,07,27,13,56,30.40
2009,07,27,13,57,30.40
2009,07,27,13,58,30.30
2009,07,27,13,59,30.20
2009,07,27,14,00,30.20
2009,07,27,14,01,30.10
2009,07,27,14,02,30.10
2009,07,27,14,03,30.10
2009,07,27,14,04,30.10
2009,07,27,14,05,29.90
2009,07,27,14,06,29.90
2009,07,27,14,07,29.90
2009,07,27,14,08,30.00
2009,07,27,14,09,30.00
2009,07,27,14,10,30.10
2009,07,27,14,11,30.10
2009,07,27,14,12,30.00
2009,07,27,14,13,29.90
2009,07,27,14,14,29.90
2009,07,27,14,15,29.80
2009,07,27,14,16,29.80
2009,07,27,14,17,29.80
2009,07,27,14,18,29.80
2009,07,27,14,19,29.80
2009,07,27,14,20,29.80
2009,07,27,14,21,29.70
2009,07,27,14,22,29.50
2009,07,27,14,23,29.40
2009,07,27,14,24,29.50
2009,07,27,14,25,29.60
2009,07,27,14,26,29.70
2009,07,27,14,27,29.80
2009,07,27,14,28,29.70
2009,07,27,14,29,29.70
2009,07,27,14,30,29.70
2009,07,27,14,31,29.70
2009,07,27,14,32,29.80
2009,07,27,14,33,29.80
2009,07,27,14,34,29.90
2009,07,27,14,35,29.90
2009,07,27,14,36,29.90
2009,07,27,14,37,29.90
2009,07,27,14,38,30.00
2009,07,27,14,39,29.90
2009,07,27,14,40,29.90
2009,07,27,14,41,29.80
2009,07,27,14,42,29.70
2009,07,27,14,43,29.60
2009,07,27,14,44,29.50
2009,07,27,14,45,29.60
2009,07,27,14,46,29.80
2009,07,27,14,47,29.80
2009,07,27,14,48,29.90
2009,07,27,14,49,29.90
2009,07,27,14,50,29.90
2009,07,27,14,51,30.00
2009,07,27,14,52,30.10
2009,07,27,14,53,30.20
2009,07,27,14,54,30.30
2009,07,27,14,55,30.30
2009,07,27,14,56,30.40
2009,07,27,14,57,30.40
2009,07,27,14,58,30.40
2009,07,27,14,59,30.40
2009,07,27,15,00,30.50
2009,07,27,15,01,30.40
2009,07,27,15,02,30.30
2009,07,27,15,03,30.40
2009,07,27,15,04,30.50
2009,07,27,15,05,30.60
2009,07,27,15,06,30.60
2009,07,27,15,07,30.70
2009,07,27,15,08,30.60
2009,07,27,15,09,30.60
2009,07,27,15,10,30.50
2009,07,27,15,11,30.30
2009,07,27,15,12,30.20
2009,07,27,15,13,30.10
2009,07,27,15,14,30.00
2009,07,27,15,15,29.90
2009,07,27,15,16,29.90
2009,07,27,15,17,29.80
2009,07,27,15,18,29.90
2009,07,27,15,19,29.90
2009,07,27,15,20,29.90
2009,07,27,15,21,29.90
2009,07,27,15,22,30.00
2009,07,27,15,23,30.00
2009,07,27,15,24,30.00
2009,07,27,15,25,30.00
2009,07,27,15,26,30.10
2009,07,27,15,27,30.20
2009,07,27,15,28,30.20
2009,07,27,15,29,30.10
2009,07,27,15,30,30.20
2009,07,27,15,31,30.30
2009,07,27,15,32,30.40
2009,07,27,15,33,30.50
2009,07,27,15,34,30.50
2009,07,27,15,35,30.60
2009,07,27,15,36,30.60
2009,07,27,15,37,30.80
2009,07,27,15,38,30.70
2009,07,27,15,39,30.60
2009,07,27,15,40,30.60
2009,07,27,15,41,30.60
2009,07,27,15,42,30.60
2009,07,27,15,43,30.60
2009,07,27,15,44,30.60
2009,07,27,15,45,30.80
2009,07,27,15,46,30.90
2009,07,27,15,47,31.00
2009,07,27,15,48,31.20
2009,07,27,15,49,31.30
2009,07,27,15,50,31.40
2009,07,27,15,51,31.40
2009,07,27,15,52,31.30
2009,07,27,15,53,31.30
2009,07,27,15,54,31.20
2009,07,27,15,55,31.10
2009,07,27,15,56,31.00
2009,07,27,15,57,30.90
2009,07,27,15,58,30.90
2009,07,27,15,59,30.90
2009,07,27,16,00,30.90
2009,07,27,16,01,30.90
2009,07,27,16,02,31.00
2009,07,27,16,03,31.10
2009,07,27,16,04,31.20
2009,07,27,16,05,31.30
2009,07,27,16,06,31.30
2009,07,27,16,07,31.30
2009,07,27,16,08,31.30
2009,07,27,16,09,31.30
2009,07,27,16,10,31.30
2009,07,27,16,11,31.40
2009,07,27,16,12,31.40
2009,07,27,16,13,31.50
2009,07,27,16,14,31.50
2009,07,27,16,15,31.40
2009,07,27,16,16,31.40
2009,07,27,16,17,31.30
2009,07,27,16,18,31.30
2009,07,27,16,19,31.20
2009,07,27,16,20,31.10
2009,07,27,16,21,31.10
2009,07,27,16,22,31.10
2009,07,27,16,23,31.20
2009,07,27,16,24,31.30
2009,07,27,16,25,31.30
2009,07,27,16,26,31.40
2009,07,27,16,27,31.40
2009,07,27,16,28,31.50
2009,07,27,16,29,31.60
2009,07,27,16,30,31.70
2009,07,27,16,31,31.80
2009,07,27,16,32,31.90
2009,07,27,16,33,32.00
2009,07,27,16,34,32.00
2009,07,27,16,35,32.00
2009,07,27,16,36,32.10
2009,07,27,16,37,32.10
2009,07,27,16,38,32.20
2009,07,27,16,39,32.20
2009,07,27,16,40,32.20
2009,07,27,16,41,32.20
2009,07,27,16,42,32.30
2009,07,27,16,43,32.40
2009,07,27,16,44,32.50
2009,07,27,16,45,32.60
2009,07,27,16,46,32.70
2009,07,27,16,47,32.70
2009,07,27,16,48,32.70
2009,07,27,16,49,32.60
2009,07,27,16,50,32.40
2009,07,27,16,51,32.20
2009,07,27,16,52,32.10
2009,07,27,16,53,32.10
2009,07,27,16,54,32.00
2009,07,27,16,55,31.90
2009,07,27,16,56,31.80
2009,07,27,16,57,31.70
2009,07,27,16,58,31.60
2009,07,27,16,59,31.60
2009,07,27,17,00,31.60
2009,07,27,17,01,31.60
2009,07,27,17,02,31.60
2009,07,27,17,03,31.50
2009,07,27,17,04,31.50
2009,07,27,17,05,31.50
2009,07,27,17,06,31.50
2009,07,27,17,07,31.60
2009,07,27,17,08,31.70
2009,07,27,17,09,31.70
2009,07,27,17,10,31.70
2009,07,27,17,11,31.70
2009,07,27,17,12,31.60
2009,07,27,17,13,31.50
2009,07,27,17,14,31.50
2009,07,27,17,15,31.40
2009,07,27,17,16,31.40
2009,07,27,17,17,31.50
2009,07,27,17,18,31.60
2009,07,27,17,19,31.60
2009,07,27,17,20,31.60
2009,07,27,17,21,31.70
2009,07,27,17,22,31.70
2009,07,27,17,23,31.70
2009,07,27,17,24,31.60